Date String (YYYY-MM-DD hh:mm:ss) UTC,Instrument flags,absolute air pressure of the measurement (hPa),sample flow rate (lpm),inlet stack bypass flow (lpm),air temperature of the measurement (°C),ambient temperature measured by the external sensor (°C),aerosol sample conditioner tube jacket temperature (°C),OPC LED temperature (°C),internal box temperature (°C),relative humidity of the measurement (%),span deviation,mass concentration of particles derived from Lorenz-Mie calculation of OPC scattering (μg/m³),mass concentration of particles derived from Lorenz-Mie calculation of OPC scattering (μg/m³),mass concentration of particles derived from Lorenz-Mie calculation of OPC scattering (μg/m³)
DateTimeUTC,F1_M11,P_M11,Q1_M11,Q2_M11,T1_M11,T2_M11,T3_M11,T4_M11,T5_M11,U1_M11,ZSPAN_M11,X0_M11,X2_M11,X1_M11
2023-10-14 12:00:00,SystemResetWarning,0836.6,5.01,000.00,026.0,024.3,000.0,034.5,027.6,14.4,0000.0,0005.53,0002.86,0002.55
2023-10-14 12:01:00,SystemResetWarning,0836.6,5.00,000.00,026.0,024.3,000.0,034.5,027.6,14.4,0000.0,0005.63,0002.86,0002.53
2023-10-14 12:02:00,SystemResetWarning,0836.5,5.01,000.00,025.9,024.2,000.0,034.5,027.5,14.4,0000.0,0005.86,0002.90,0002.53
2023-10-14 12:03:00,SystemResetWarning,0836.6,4.99,000.00,025.9,024.2,000.0,034.5,027.5,14.4,0000.0,0005.60,0002.89,0002.53
2023-10-14 12:04:00,SystemResetWarning,0836.6,4.99,000.00,025.9,024.2,000.0,034.5,027.5,14.4,0000.0,0004.27,0002.89,0002.53
2023-10-14 12:05:00,SystemResetWarning,0836.6,4.99,000.00,025.9,024.2,000.0,034.5,027.5,14.4,0000.0,0004.10,0002.85,0002.53
2023-10-14 12:06:00,SystemResetWarning,0836.7,5.00,000.00,025.9,024.2,000.0,034.4,027.5,14.4,0000.0,0004.09,0002.84,0002.53
2023-10-14 12:07:00,SystemResetWarning,0836.6,5.01,000.00,025.9,024.2,000.0,034.4,027.5,14.4,0000.0,0004.15,0002.86,0002.53
2023-10-14 12:08:00,SystemResetWarning,0836.6,5.00,000.00,025.9,024.1,000.0,034.4,027.5,14.4,0000.0,0004.22,0002.88,0002.53
2023-10-14 12:09:00,SystemResetWarning,0836.5,5.01,000.00,025.8,024.1,000.0,034.4,027.5,14.4,0000.0,0004.23,0002.89,0002.53
2023-10-14 12:10:00,SystemResetWarning,0836.6,4.99,000.00,025.8,024.1,000.0,034.4,027.5,14.4,0000.0,0004.11,0002.89,0002.54
2023-10-14 12:11:00,SystemResetWarning,0836.6,4.99,000.00,025.8,024.1,000.0,034.4,027.5,14.4,0000.0,0003.85,0002.86,0002.55
2023-10-14 12:12:00,SystemResetWarning,0836.6,5.00,000.00,025.8,024.1,000.0,034.4,027.4,14.4,0000.0,0003.84,0002.86,0002.55
2023-10-14 12:13:00,SystemResetWarning,0836.6,5.00,000.00,025.8,024.1,000.0,034.4,027.4,14.4,0000.0,0003.68,0002.84,0002.55
2023-10-14 12:14:00,SystemResetWarning,0836.6,5.00,000.00,025.8,024.1,000.0,034.4,027.4,14.4,0000.0,0003.72,0002.85,0002.56
2023-10-14 12:15:00,SystemResetWarning,0836.7,5.00,000.00,025.8,024.1,000.0,034.3,027.4,14.4,0000.0,0003.78,0002.86,0002.57
2023-10-14 12:16:00,SystemResetWarning,0836.6,5.00,000.00,025.8,024.1,000.0,034.3,027.4,14.4,0000.0,0003.82,0002.89,0002.59
2023-10-14 12:17:00,SystemResetWarning,0836.6,5.00,000.00,025.8,024.1,000.0,034.3,027.4,14.4,0000.0,0003.85,0002.91,0002.60
2023-10-14 12:18:00,SystemResetWarning,0836.6,5.00,000.00,025.7,024.1,000.0,034.3,027.4,14.4,0000.0,0003.79,0002.90,0002.62
2023-10-14 12:19:00,SystemResetWarning,0836.6,5.00,000.00,025.7,024.0,000.0,034.3,027.4,14.4,0000.0,0003.74,0002.90,0002.64
2023-10-14 12:20:00,SystemResetWarning,0836.6,5.00,000.00,025.7,024.0,000.0,034.3,027.4,14.4,0000.0,0003.79,0002.91,0002.64
2023-10-14 12:21:00,SystemResetWarning,0836.6,5.00,000.00,025.7,024.0,000.0,034.3,027.4,14.4,0000.0,0003.79,0002.90,0002.64
2023-10-14 12:22:00,SystemResetWarning,0836.6,5.00,000.00,025.7,024.0,000.0,034.3,027.4,14.4,0000.0,0003.81,0002.90,0002.64
2023-10-14 12:23:00,SystemResetWarning,0836.6,5.00,000.00,025.7,024.0,000.0,034.3,027.4,14.3,0000.0,0003.71,0002.88,0002.64
2023-10-14 12:24:00,SystemResetWarning,0836.6,5.00,000.00,025.7,023.9,000.0,034.3,027.4,14.3,0000.0,0003.69,0002.87,0002.63
2023-10-14 12:25:00,SystemResetWarning,0836.6,5.00,000.00,025.7,023.9,000.0,034.2,027.3,14.4,0000.0,0003.62,0002.85,0002.61
2023-10-14 12:26:00,SystemResetWarning,0836.7,5.00,000.00,025.7,023.9,000.0,034.2,027.3,14.4,0000.0,0003.65,0002.84,0002.61
2023-10-14 12:27:00,SystemResetWarning,0836.7,5.00,000.00,025.7,023.9,000.0,034.2,027.3,14.4,0000.0,0003.87,0002.81,0002.60
2023-10-14 12:28:00,SystemResetWarning,0836.7,4.99,000.00,025.6,023.9,000.0,034.2,027.3,14.4,0000.0,0003.86,0002.81,0002.59
2023-10-14 12:29:00,SystemResetWarning,0836.7,5.00,000.00,025.6,023.9,000.0,034.2,027.3,14.4,0000.0,0003.93,0002.81,0002.60
2023-10-14 12:30:00,SystemResetWarning,0836.7,4.99,000.00,025.6,023.9,000.0,034.2,027.2,14.5,0000.0,0003.95,0002.81,0002.59
2023-10-14 12:31:00,SystemResetWarning,0836.7,5.00,000.00,025.6,023.9,000.0,034.2,027.2,14.5,0000.0,0003.93,0002.81,0002.59
2023-10-14 12:32:00,SystemResetWarning,0836.7,5.00,000.00,025.6,023.9,000.0,034.2,027.3,14.5,0000.0,0003.89,0002.80,0002.59
2023-10-14 12:33:00,SystemResetWarning,0836.7,5.01,000.00,025.6,023.9,000.0,034.2,027.3,14.5,0000.0,0003.92,0002.82,0002.60
2023-10-14 12:34:00,SystemResetWarning,0836.7,5.00,000.00,025.6,023.8,000.0,034.1,027.2,14.5,0000.0,0003.91,0002.82,0002.60
2023-10-14 12:35:00,SystemResetWarning,0836.7,5.00,000.00,025.6,023.8,000.0,034.1,027.2,14.5,0000.0,0003.88,0002.81,0002.61
2023-10-14 12:36:00,SystemResetWarning,0836.7,5.00,000.00,025.6,023.8,000.0,034.1,027.2,14.5,0000.0,0003.86,0002.81,0002.61
2023-10-14 12:37:00,SystemResetWarning,0836.7,5.00,000.00,025.5,023.8,000.0,034.1,027.2,14.5,0000.0,0003.81,0002.81,0002.62
2023-10-14 12:38:00,SystemResetWarning,0836.7,4.99,000.00,025.5,023.8,000.0,034.1,027.2,14.6,0000.0,0003.46,0002.79,0002.61
2023-10-14 12:39:00,SystemResetWarning,0836.7,4.99,000.00,025.5,023.8,000.0,034.1,027.2,14.6,0000.0,0003.67,0002.81,0002.63
2023-10-14 12:40:00,SystemResetWarning,0836.7,5.00,000.00,025.5,023.8,000.0,034.1,027.2,14.6,0000.0,0004.40,0002.79,0002.62
2023-10-14 12:41:00,SystemResetWarning,0836.7,5.00,000.00,025.5,023.8,000.0,034.1,027.1,14.6,0000.0,0004.36,0002.78,0002.61
2023-10-14 12:42:00,SystemResetWarning,0836.8,5.01,000.00,025.5,023.8,000.0,034.1,027.1,14.6,0000.0,0004.35,0002.78,0002.61
2023-10-14 12:43:00,SystemResetWarning,0836.8,5.00,000.00,025.5,023.8,000.0,034.1,027.1,14.6,0000.0,0004.27,0002.76,0002.62
2023-10-14 12:44:00,SystemResetWarning,0836.8,5.01,000.00,025.5,023.7,000.0,034.0,027.1,14.6,0000.0,0004.32,0002.76,0002.63
2023-10-14 12:45:00,SystemResetWarning,0836.7,5.01,000.00,025.5,023.7,000.0,034.0,027.1,14.6,0000.0,0004.29,0002.76,0002.64
2023-10-14 12:46:00,SystemResetWarning,0836.8,5.00,000.00,025.5,023.7,000.0,034.0,027.1,14.7,0000.0,0004.35,0002.79,0002.65
2023-10-14 12:47:00,SystemResetWarning,0836.8,5.00,000.00,025.4,023.7,000.0,034.0,027.1,14.7,0000.0,0004.39,0002.81,0002.66
2023-10-14 12:48:00,SystemResetWarning,0836.7,4.99,000.00,025.4,023.7,000.0,034.0,027.1,14.7,0000.0,0004.42,0002.83,0002.67
2023-10-14 12:49:00,SystemResetWarning,0836.8,5.00,000.00,025.4,023.7,000.0,034.0,027.1,14.5,0000.0,0004.44,0002.84,0002.69
2023-10-14 12:50:00,SystemResetWarning,0836.8,5.00,000.00,025.4,023.6,000.0,034.0,027.1,14.2,0000.0,0004.34,0002.87,0002.70
2023-10-14 12:51:00,SystemResetWarning,0836.8,5.00,000.00,025.4,023.6,000.0,034.0,027.1,14.2,0000.0,0003.50,0002.89,0002.72
2023-10-14 12:52:00,SystemResetWarning,0836.8,5.00,000.00,025.4,023.6,000.0,034.0,027.1,14.2,0000.0,0003.71,0002.93,0002.73
2023-10-14 12:53:00,SystemResetWarning,0836.8,5.00,000.00,025.4,023.7,000.0,033.9,027.1,14.3,0000.0,0003.67,0002.92,0002.74
2023-10-14 12:54:00,SystemResetWarning,0836.8,5.01,000.00,025.4,023.7,000.0,033.9,027.1,14.5,0000.0,0003.69,0002.93,0002.74
2023-10-14 12:55:00,SystemResetWarning,0836.8,5.00,000.00,025.4,023.7,000.0,033.9,027.1,14.6,0000.0,0003.67,0002.94,0002.74
2023-10-14 12:56:00,SystemResetWarning,0836.8,5.00,000.00,025.4,023.7,000.0,033.9,027.1,14.6,0000.0,0003.64,0002.93,0002.74
2023-10-14 12:57:00,SystemResetWarning,0836.8,4.99,000.00,025.4,023.7,000.0,033.9,027.1,14.7,0000.0,0003.63,0002.93,0002.75
2023-10-14 12:58:00,SystemResetWarning,0836.8,4.99,000.00,025.4,023.7,000.0,033.9,027.1,14.7,0000.0,0003.72,0002.97,0002.76
2023-10-14 12:59:00,SystemResetWarning,0836.9,5.00,000.00,025.4,023.7,000.0,033.9,027.1,14.7,0000.0,0003.89,0002.99,0002.78
